Location: Be?i?
(36.9044°N, 30.1006°E)
Time: 10:21:23
(UTC+00:00)

CENTAUR R/B - Pass Details

Date: 05 August 2024
Orbit: 663 x 1521 km, 63.4° (Epoch: 12 September)

Event Time Altitude Azimuth Distance (km) Brightness Sun altitude
Rises 18:51:05 0° 328° (NNW) 4,288 7.2 -19.5°
Reaches altitude 10° 18:53:47 10° 329° (NNW) 3,411 6.4 -19.9°
Maximum altitude 19:02:27 83° 58° (ENE) 1,496 3.3 -21.2°
Enters shadow 19:07:21 33° 143° (SE) 2,327 3.9 -21.9°
